UFO 11 (USA 174)

Last updated on Sun Oct 06 2024 00:02:38 GMT+0000 (Coordinated Universal Time)

1 28117U 03057A 24279.41275738 -.00000088 00000+0 00000+0 0 9990 2 28117 8.2404 36.3868 0004033 163.2780 38.6104 1.00271105 76237
UTC large
Height (km)
Speed (km/s)
/
Latitude / Longitude
Inclination (degrees)
Orbital Period (minutes)
Azimuth
Elevation
Range (km)
Doppler Factor

Next 0 passes for location: London (51.5072 / 0.1276)

Sorry there are no passes over London.